Regional Weather Roundup
Issued by NWS

Home | Current Version | Previous Version | Graphics & Text | Print | Product List | Glossary On
Versions: 1 2 3 4 5 6 7 8 9 10 11 12 13 14 15 16 17 18 19 20 21 22 23 24 25 26 27
000
ASUS45 KCYS 131910
RWRWY

WYOMING REGIONAL WEATHER ROUNDUP
NATIONAL WEATHER SERVICE CHEYENNE WY
1200 PM MST WED DEC 13 2017

NOTE:  "FAIR" INDICATES FEW OR NO CLOUDS BELOW 12,000 FEET
WITH NO SIGNIFICANT WEATHER AND/OR OBSTRUCTIONS TO VISIBILITY.

WYZ001-132000-
YELLOWSTONE NATIONAL PARK

CITY           SKY/WX    TMP DP  RH WIND       PRES   REMARKS
LK YELLOWSTONE   N/A     21  19  92 CALM      30.24F
W YELLOWSTONE  NOT AVBL

$$
WYZ002>013-054>058-071-098>099-132000-
NORTHERN WYOMING

CITY           SKY/WX    TMP DP  RH WIND       PRES   REMARKS
JACKSON        LGT SNOW  25  19  80 NE8       30.26S WCI  16
CODY           PTSUNNY   40  13  33 CALM      30.19S
GREYBULL       PTSUNNY   34  18  52 NW5       30.17S WCI  30
WORLAND        FAIR      40  17  39 CALM      30.15F
SHERIDAN       FAIR      46  18  32 NW15      30.12F
BUFFALO        FAIR      46  12  25 N18       30.10F
GILLETTE       FAIR      42  17  36 NW15      30.09F
HULETT         FAIR      37  21  52 W12G17    30.09F WCI  30
NEWCASTLE      FAIR      39  18  41 NW15G23   30.07F WCI  31

$$
WYZ014>020-022>026-101>103-132000-
CENTRAL WYOMING

CITY           SKY/WX    TMP DP  RH WIND       PRES   REMARKS
BIG PINEY      CLOUDY    35   4  27 S3        30.15F
PINEDALE       CLOUDY    39   5  24 W7        30.16F WCI  34
DUBOIS         CLOUDY    34  18  51 NW22G36   30.16R WCI  22
LANDER         CLOUDY    41  16  36 CALM      30.11F
RIVERTON       CLOUDY    40  21  46 SE3       30.13F
CASPER         FAIR      42  16  34 SW7       30.11F
DOUGLAS        FAIR      45  18  34 NW15      30.11F

$$
WYZ021-027>030-104>119-132000-
SOUTHERN WYOMING

CITY           SKY/WX    TMP DP  RH WIND       PRES   REMARKS
EVANSTON       CLOUDY    39   7  26 SW17      30.20F WCI  30
FORT BRIDGER   CLOUDY    44  -3  13 W18G25    30.19F
ROCK SPRINGS   FAIR      41  -2  16 W15       30.14F
DIXON          CLOUDY    34  18  52 NW3       30.19F
RAWLINS        PTSUNNY   41   9  26 W6        30.14F
SARATOGA       FAIR      41  10  28 E6        30.14F
LARAMIE        FAIR      43   9  24 NW14      30.11F
CHEYENNE       FAIR      45  10  24 N15G23    30.09F
TORRINGTON     FAIR      48  15  26 NW14G23   30.07F
PINE BLUFFS    FAIR      46  12  25 NW24G32   30.09F

$$




USA.gov is the U.S. government's official web portal to all federal, state and local government web resources and services.